Waarnemingen

Advertentie
Mijn weer
Lyon/Bron, Frankrijk (7480): temperatuur & dauwpunt: 27.03.2020 00:00:00 - 02.04.2020 00:00:00 (CEST)Lyon/Bron, Frankrijk (7480): temperatuur 5cm: 27.03.2020 00:00:00 - 02.04.2020 00:00:00 (CEST)Lyon/Bron, Frankrijk (7480): temperatuur -20cm: 27.03.2020 00:00:00 - 02.04.2020 00:00:00 (CEST)Lyon/Bron, Frankrijk (7480): windsnelheid & windstoten: 27.03.2020 00:00:00 - 02.04.2020 00:00:00 (CEST)Lyon/Bron, Frankrijk (7480): windrichting: 27.03.2020 00:00:00 - 02.04.2020 00:00:00 (CEST)Lyon/Bron, Frankrijk (7480): luchtdruk: 27.03.2020 00:00:00 - 02.04.2020 00:00:00 (CEST)Lyon/Bron, Frankrijk (7480): zicht: 27.03.2020 00:00:00 - 02.04.2020 00:00:00 (CEST)Lyon/Bron, Frankrijk (7480): Zonneschijnduur: 27.03.2020 00:00:00 - 02.04.2020 00:00:00 (CEST)Lyon/Bron, Frankrijk (7480): neerslag: 27.03.2020 00:00:00 - 02.04.2020 00:00:00 (CEST)
Datum & Tijd tt [°C] td [°C] tt 5cm [°C] tt -20cm [°C] ff [km/u] ff [kn] fx [km/u] fx [kn] dd ppp [hPa] vv [km] sd [min] rr [mm]
02.04.2020 00:00:00 6,7 1,2 0,2 11,8 3 1 6 3 NO 1015,5 21 0 0,0
01.04.2020 23:00:00 8,7 1,1 2,2 11,8 5 3 14 8 NO 1015,2 25 0 0,0
01.04.2020 22:00:00 10,0 1,4 3,4 11,8 0 0 12 6 N 1014,7 25 0 0,0
01.04.2020 21:00:00 11,2 1,7 5,5 11,7 8 4 18 10 N 1014,4 26 0 0,0
01.04.2020 20:00:00 13,8 1,4 9,2 11,5 7 4 13 7 N 1013,8 42 15 0,0
01.04.2020 19:00:00 15,4 1,5 17,9 11,3 9 5 14 8 NO 1013,8 20 60 0,0
01.04.2020 18:00:00 17,0 2,2 22,9 10,9 8 4 14 8 NW 1013,8 38 60 0,0
01.04.2020 17:00:00 16,4 1,7 24,2 10,6 8 5 14 8 NNW 1014,3 38 60 0,0
01.04.2020 16:00:00 16,0 2,7 25,0 10,2 9 5 20 11 Z 1015,0 18 60 0,0
01.04.2020 15:00:00 15,2 2,4 23,2 9,9 5 3 18 10 W 1015,8 33 60 0,0
01.04.2020 14:00:00 14,2 2,1 21,6 9,6 11 6 25 13 ZW 1016,7 20 60 0,0
01.04.2020 13:00:00 12,7 0,7 20,6 9,5 4 2 16 8 ZO 1017,8 20 60 0,0
01.04.2020 12:00:00 10,7 -0,8 18,8 9,5 4 2 15 8 NO 1018,9 16 60 0,0
01.04.2020 11:00:00 8,7 -1,7 15,3 9,6 6 3 13 7 OZO 1019,8 19 60 0,0
01.04.2020 10:00:00 5,7 -3,4 9,9 9,7 3 2 7 4 WNW 1020,3 20 60 0,0
01.04.2020 09:00:00 2,6 -2,7 -3,9 9,9 3 2 5 3 Z 1020,6 19 60 0,0
01.04.2020 08:00:00 -1,1 -3,9 -5,9 10,0 2 1 4 2 ZO 1021,0 21 8 0,0
01.04.2020 07:00:00 -0,8 -4,2 -5,7 10,2 0 0 7 4 N 1020,7 24 0 0,0
01.04.2020 06:00:00 0,1 -4,0 -5,2 10,4 2 1 11 6 ZZO 1020,7 23 0 0,0
01.04.2020 05:00:00 0,5 -3,6 -4,9 10,6 5 3 7 4 W 1020,4 26 0 0,0
01.04.2020 04:00:00 0,8 -3,7 -4,3 10,7 3 2 5 3 WZW 1020,7 26 0 0,0
01.04.2020 03:00:00 1,6 -4,1 -3,5 10,9 2 1 7 4 NNW 1020,7 25 0 0,0
01.04.2020 02:00:00 3,2 -4,1 -2,6 11,0 5 3 7 4 ZZW 1020,6 37 0 0,0
01.04.2020 01:00:00 4,7 -5,1 -1,1 11,1 6 3 15 8 WNW 1020,3 47 0 0,0
01.04.2020 00:00:00 5,7 -4,8 -0,5 11,2 9 5 17 9 NW 1020,0 51 0 0,0
31.03.2020 23:00:00 7,3 -4,8 1,6 11,3 9 5 20 11 NW 1019,8 54 0 0,0
31.03.2020 22:00:00 8,8 -4,4 4,9 11,3 13 7 22 12 NW 1019,5 54 0 0,0
31.03.2020 21:00:00 9,8 -4,2 6,5 11,3 16 8 26 14 NNW 1019,4 59 0 0,0
31.03.2020 20:00:00 11,4 -4,3 8,9 11,1 14 8 23 13 NNW 1018,9 60 34 0,0
31.03.2020 19:00:00 13,5 -4,2 15,5 10,8 14 7 24 13 NNW 1018,8 57 60 0,0
31.03.2020 18:00:00 13,0 -3,8 20,1 10,5 11 6 21 12 N 1018,8 50 60 0,0
31.03.2020 17:00:00 12,9 -0,7 18,8 10,2 11 6 26 14 N 1019,4 42 60 0,0
31.03.2020 16:00:00 12,0 -1,9 21,9 9,9 10 6 25 14 N 1020,2 18 60 0,0
31.03.2020 15:00:00 11,2 -1,3 21,3 9,6 10 6 24 13 N 1020,7 20 60 0,0
31.03.2020 14:00:00 9,8 -1,3 17,8 9,4 11 6 29 16 NNW 1021,4 18 60 0,0
31.03.2020 13:00:00 8,7 -2,0 17,5 9,3 11 6 24 13 N 1021,7 38 60 0,0
31.03.2020 12:00:00 6,8 -3,5 14,4 9,3 13 7 23 13 NW 1022,0 30 60 0,0
31.03.2020 11:00:00 4,3 -4,0 7,0 9,4 8 4 18 10 N 1022,2 20 19 0,0
31.03.2020 10:00:00 2,8 -4,2 3,2 9,4 11 6 19 10 NNW 1022,3 41 0 0,0
31.03.2020 09:00:00 1,9 -4,6 1,5 9,5 13 7 20 11 NNW 1022,0 39 0 0,0
31.03.2020 08:00:00 1,4 -5,1 0,3 9,7 14 8 21 12 NNW 1021,7 42 0 0,0
31.03.2020 07:00:00 1,2 -4,7 -1,3 9,8 11 6 18 10 NW 1021,2 42 0 0,0
31.03.2020 06:00:00 1,3 -4,6 -0,8 9,9 11 6 22 12 NNW 1020,7 40 0 0,0
31.03.2020 05:00:00 2,3 -4,2 0,8 10,0 16 8 21 12 NNW 1020,3 43 0 0,0
31.03.2020 04:00:00 2,2 -3,5 -0,7 10,1 10 5 15 8 NW 1020,4 32 0 0,0
31.03.2020 03:00:00 2,1 -3,0 -1,4 10,2 10 5 15 8 NNW 1020,6 28 0 0,0
31.03.2020 02:00:00 3,4 -2,8 0,9 10,3 11 6 16 9 NW 1020,3 29 0 0,0
31.03.2020 01:00:00 3,4 -2,4 0,6 10,4 10 5 18 10 NNW 1020,2 31 0 0,0
31.03.2020 00:00:00 3,8 -2,2 1,4 10,5 12 7 20 11 NNW 1020,2 32 0 0,0
30.03.2020 23:00:00 4,8 -2,1 2,4 10,5 13 7 23 12 NNW 1020,0 34 0 0,0
30.03.2020 22:00:00 5,7 -1,9 4,0 10,5 16 9 35 19 NNW 1019,7 40 0 0,0
30.03.2020 21:00:00 6,9 -1,0 6,1 10,5 21 11 34 19 N 1019,2 42 0 0,0
30.03.2020 20:00:00 7,4 -0,8 6,6 10,5 19 11 35 19 NNW 1018,8 44 0 0,0
30.03.2020 19:00:00 8,2 0,2 8,0 10,5 22 12 32 17 N 1018,4 46 0 0,0
30.03.2020 18:00:00 8,5 0,7 8,9 10,4 18 10 31 17 N 1018,2 46 0 0,0
30.03.2020 17:00:00 8,8 1,0 10,2 10,3 20 11 32 18 N 1018,3 45 0 0,0
30.03.2020 16:00:00 8,6 0,6 11,8 10,2 24 13 38 20 N 1018,6 20 0 0,0
30.03.2020 15:00:00 8,0 0,5 11,0 10,1 22 12 36 20 N 1019,1 45 0 0,0
30.03.2020 14:00:00 7,8 0,7 10,1 10,1 24 13 38 20 NNW 1019,1 53 0 0,0
30.03.2020 13:00:00 7,1 0,7 8,5 10,1 22 12 33 18 NNW 1019,3 53 0 0,0
30.03.2020 12:00:00 5,9 0,4 6,3 10,1 20 11 32 17 NNW 1019,6 48 0 0,0
30.03.2020 11:00:00 4,9 0,3 5,6 10,2 18 10 30 16 NNW 1019,7 57 0 0,0
30.03.2020 10:00:00 4,4 0,5 4,6 10,3 18 10 32 17 N 1019,1 53 0 0,0
30.03.2020 09:00:00 4,1 0,6 3,8 10,4 17 9 30 16 NNW 1018,8 52 0 0,0
30.03.2020 08:00:00 4,0 1,2 3,5 10,4 17 9 29 16 N 1018,6 39 0 0,0
30.03.2020 07:00:00 3,8 1,0 3,3 10,5 16 9 28 15 N 1018,4 35 0 0,0
30.03.2020 06:00:00 3,7 1,1 2,9 10,6 16 9 33 18 N 1018,4 42 0 0,0
30.03.2020 05:00:00 3,5 1,0 2,8 10,7 23 12 34 18 N 1018,8 40 0 0,0
30.03.2020 04:00:00 3,4 1,3 2,8 10,8 21 12 37 20 N 1019,1 30 0 0,0
30.03.2020 03:00:00 3,8 1,5 3,2 10,9 23 12 41 22 N 1019,6 15 0 0,0
30.03.2020 02:00:00 3,7 1,2 3,2 11,0 24 13 41 22 N 1020,0 26 0 0,0
30.03.2020 01:00:00 3,8 1,5 3,1 11,1 25 14 39 21 NNW 1020,3 23 0 0,0
30.03.2020 00:00:00 3,7 1,4 2,9 11,2 26 14 46 25 N 1020,8 25 0 0,0
29.03.2020 23:00:00 3,5 1,5 2,6 11,3 24 13 43 23 NNW 1021,0 20 0 0,4
29.03.2020 22:00:00 3,5 1,4 2,7 11,4 24 13 48 26 N 1021,3 8 0 0,2
29.03.2020 21:00:00 4,0 1,0 3,5 11,4 28 15 44 24 NNW 1021,3 19 0 0,0
29.03.2020 20:00:00 4,4 0,4 4,2 11,5 31 17 57 31 NNW 1021,2 26 0 0,0
29.03.2020 19:00:00 4,4 0,4 4,5 11,6 31 17 57 31 N 1021,3 26 0 0,0
29.03.2020 18:00:00 4,7 0,6 4,7 11,5 30 16 58 31 NNW 1021,1 43 0 0,0
29.03.2020 17:00:00 5,9 0,8 6,1 11,5 33 18 57 31 NNW 1020,7 28 0 0,0
29.03.2020 16:00:00 7,8 1,0 9,2 11,4 36 19 56 31 NNW 1020,0 19 4 0,0
29.03.2020 15:00:00 9,4 1,3 12,3 11,4 36 20 56 30 NNW 1019,4 17 0 0,0
29.03.2020 14:00:00 10,1 2,0 12,7 11,4 31 17 49 27 N 1019,0 18 0 0,0
29.03.2020 13:00:00 10,6 2,4 12,3 11,4 30 16 51 27 N 1018,9 12 5 0,0
29.03.2020 12:00:00 9,2 1,8 8,9 11,4 32 18 52 28 NNW 1018,9 17 0 0,0
29.03.2020 11:00:00 8,2 1,3 8,7 11,5 29 16 49 27 NNW 1018,8 12 0 0,0
29.03.2020 10:00:00 8,7 0,9 9,3 11,5 29 16 43 23 NNW 1018,2 12 0 0,0
29.03.2020 09:00:00 9,2 0,9 8,9 11,6 27 15 49 27 NNW 1017,3 13 0 0,0
29.03.2020 08:00:00 9,7 1,3 8,7 11,7 21 11 39 21 NNW 1016,7 13 0 0,0
29.03.2020 07:00:00 10,7 3,5 8,4 11,8 16 9 29 16 NNW 1016,1 18 0 0,0
29.03.2020 06:00:00 11,7 3,9 8,5 11,8 16 9 30 16 N 1015,8 19 0 0,0
29.03.2020 05:00:00 11,6 4,1 5,4 12,0 9 5 15 8 N 1015,9 19 0 0,0
29.03.2020 04:00:00 11,0 3,5 5,5 12,0 4 2 12 6 NNW 1016,1 20 0 0,0
29.03.2020 03:00:00 12,0 4,0 7,8 12,2 7 4 14 8 NNW 1016,2 20 0 0,0
29.03.2020 02:00:00 11,7 4,2 6,6 12,2 7 4 16 8 NW 1016,3 20 0 0,0
29.03.2020 01:00:00 11,9 3,9 7,4 12,3 8 4 14 8 NNW 1016,5 22 0 0,0
29.03.2020 00:00:00 12,6 4,0 8,7 12,4 8 5 16 8 WNW 1016,3 22 0 0,0
28.03.2020 23:00:00 13,0 3,9 8,7 12,4 8 4 19 11 W 1016,4 19 0 0,0
28.03.2020 22:00:00 13,6 4,5 5,8 12,4 13 7 23 12 NW 1016,5 17 0 0,0
28.03.2020 21:00:00 12,8 3,7 6,1 12,4 5 3 11 6 NNW 1016,2 17 0 0,0
28.03.2020 20:00:00 15,1 4,2 11,5 12,2 9 5 21 12 N 1015,6 20 0 0,0
28.03.2020 19:00:00 16,5 4,5 17,3 12,0 15 8 30 16 N 1015,2 20 54 0,0
28.03.2020 18:00:00 17,2 4,2 21,2 11,7 18 10 30 16 N 1014,9 19 60 0,0
28.03.2020 17:00:00 17,3 4,3 23,5 11,4 16 9 29 16 N 1015,0 18 60 0,0
28.03.2020 16:00:00 17,4 3,3 23,4 11,1 15 8 36 19 N 1015,4 18 60 0,0
28.03.2020 15:00:00 16,7 3,4 23,6 10,9 16 9 29 16 NNW 1016,0 19 60 0,0
28.03.2020 14:00:00 15,5 3,6 23,8 10,7 14 8 25 14 N 1016,8 13 60 0,0
28.03.2020 13:00:00 14,2 3,3 19,5 10,6 8 4 16 9 N 1017,4 16 53 0,0
28.03.2020 12:00:00 12,2 2,9 16,1 10,6 4 2 11 6 NNW 1018,1 14 37 0,0
28.03.2020 11:00:00 9,8 3,1 11,9 10,6 2 1 6 4 N 1018,6 9 1 0,0
28.03.2020 10:00:00 7,6 2,7 7,0 10,7 2 1 5 3 WZW 1018,6 8 0 0,0
28.03.2020 09:00:00 5,6 1,9 3,1 10,8 3 1 5 3 ONO 1018,5 9 0 0,0
28.03.2020 08:00:00 4,7 1,4 1,7 10,9 3 2 4 2 Z 1018,4 10 0 0,0
28.03.2020 07:00:00 5,0 0,9 2,8 11,0 2 1 6 3 Z 1018,0 10 0 0,0
28.03.2020 06:00:00 4,5 1,2 1,1 11,2 4 2 6 3 ZZO 1017,9 9 0 0,0
28.03.2020 05:00:00 3,6 0,5 -0,9 11,3 2 1 7 4 Z 1017,9 9 0 0,0
28.03.2020 04:00:00 4,0 0,5 -0,6 11,4 4 2 9 5 Z 1018,0 10 0 0,0
28.03.2020 03:00:00 5,1 0,8 0,3 11,5 6 4 11 6 ZZW 1017,6 11 0 0,0
28.03.2020 02:00:00 5,2 1,1 0,2 11,7 8 4 10 5 ZZW 1017,5 10 0 0,0
28.03.2020 01:00:00 6,2 1,7 1,1 11,8 7 4 9 5 ZZW 1017,4 9 0 0,0
28.03.2020 00:00:00 6,4 1,3 1,5 11,9 3 2 4 2 ZW 1017,4 15 0 0,0
27.03.2020 23:00:00 8,2 0,9 2,8 11,9 3 2 8 5 WNW 1016,8 16 0 0,0
27.03.2020 22:00:00 9,0 0,9 3,5 12,0 5 3 8 5 NNW 1016,4 16 0 0,0
27.03.2020 21:00:00 10,4 1,0 4,9 11,9 7 4 13 7 N 1015,9 19 0 0,0
27.03.2020 20:00:00 11,5 1,4 8,9 11,8 6 4 15 8 N 1015,1 20 0 0,0
27.03.2020 19:00:00 12,5 1,5 12,4 11,7 10 5 21 11 N 1014,5 21 0 0,0
27.03.2020 18:00:00 12,6 0,7 14,1 11,5 12 7 26 14 N 1014,2 19 7 0,0
27.03.2020 17:00:00 12,8 1,1 15,9 11,3 14 7 26 14 NNO 1014,3 20 29 0,0
27.03.2020 16:00:00 12,6 0,7 19,7 11,0 15 8 32 17 N 1014,4 23 53 0,0
27.03.2020 15:00:00 12,2 0,6 18,8 10,8 21 11 35 19 N 1014,6 11 53 0,0
27.03.2020 14:00:00 11,5 0,6 18,8 10,7 17 9 36 19 N 1014,8 19 47 0,0
27.03.2020 13:00:00 9,8 -0,4 15,1 10,7 14 8 26 14 NNW 1015,3 15 47 0,0
27.03.2020 12:00:00 9,1 -0,8 13,2 10,7 14 7 21 11 NNW 1015,7 19 53 0,0
27.03.2020 11:00:00 7,2 -1,8 13,0 10,8 12 6 30 16 NW 1015,9 19 55 0,0
27.03.2020 10:00:00 6,1 -1,8 6,8 10,8 14 8 22 12 NNW 1016,0 18 30 0,0
27.03.2020 09:00:00 4,9 -2,5 -0,2 11,0 11 6 20 11 N 1015,8 19 0 0,0
27.03.2020 08:00:00 2,9 -2,6 -0,9 11,1 6 3 11 6 N 1015,8 19 0 0,0
27.03.2020 07:00:00 4,1 -2,8 0,7 11,3 8 4 14 7 N 1015,3 20 0 0,0
27.03.2020 06:00:00 4,2 -3,1 0,4 11,4 0 0 11 6 N 1014,8 19 0 0,0
27.03.2020 05:00:00 5,2 -3,1 2,3 11,6 8 5 22 12 N 1014,5 20 0 0,0
27.03.2020 04:00:00 6,1 -3,0 3,4 11,7 14 8 21 12 NNW 1014,3 20 0 0,0
27.03.2020 03:00:00 6,4 -3,0 4,1 11,8 16 9 23 13 NW 1014,1 19 0 0,0
27.03.2020 02:00:00 6,5 -2,7 4,5 12,0 16 9 25 13 NNW 1013,8 18 0 0,0
27.03.2020 01:00:00 7,0 -2,7 4,9 12,1 19 11 29 16 NNW 1013,9 20 0 0,0
27.03.2020 00:00:00 - - - - - - - - - - - - -

tt = temperatuur
td = dauwpunt
tt 5cm = temperatuur 5cm
tt -20cm = temperatuur -20cm
ff = windsnelheid
fx = windstoten
dd = windrichting
ppp = luchtdruk
vv = zicht
sd = Zonneschijnduur
rr = neerslag

Weerstations in de omgeving